Location: Clearlake Highlands
(38.9555°N, 122.6428°W)
Time: 08:06:16
(UTC+00:00)

Daily predictions for brighter satellites

Satellite Brightness Start Highest point End
(mag) Time Altitude Azimuth Time Altitude Azimuth Time Altitude Azimuth
STARLINK-1267 4.4 12:01:05 10° W 12:04:11 32° NNW 12:07:18 10° NNE
BREEZE M DEB (TANK) 4.5 12:01:42 10° WNW 12:05:21 40° SSW 12:16:32 10° SSE
MSX 3.9 12:00:08 10° N 12:05:54 75° WNW 12:11:36 10° SSW
STARLINK-1240 4.0 12:02:16 10° WNW 12:06:10 41° SW 12:10:03 10° SSE
STARLINK-1272 4.5 12:03:14 10° W 12:06:18 31° NNW 12:09:24 10° NNE
STARLINK-1207 4.5 12:04:22 10° W 12:07:23 30° NNW 12:10:25 10° NNE
Cosmos 2084 Rocket 3.9 12:05:29 10° NW 12:09:43 43° WSW 12:13:58 10° S
SL-8 Rocket 4.1 12:04:37 10° SSW 12:10:53 67° W 12:17:09 10° N
STARLINK-1216 4.1 12:07:16 10° WNW 12:11:06 37° SW 12:14:55 10° SSE
STARLINK-1304 3.8 12:07:03 10° SW 12:11:09 67° SE 12:15:16 10° NE
PAYLOAD A 4.0 12:07:25 10° NNE 12:12:07 78° ESE 12:16:54 10° S
STARLINK-58 4.2 12:10:59 10° W 12:13:53 32° NW 12:16:48 10° NNE
CZ-2C R/B 3.8 12:11:24 10° N 12:14:39 29° WNW 12:17:55 10° SW
STARLINK-1286 3.7 12:11:23 10° SW 12:15:32 77° SE 12:19:42 10° NE
Cosmos 1825 2.3 12:12:11 10° SSW 12:15:51 55° W 12:19:33 10° N
STARLINK-1237 4.3 12:12:18 10° WNW 12:16:03 33° SW 12:19:47 10° SSE
USA 234 3.4 12:10:27 10° NE 12:17:01 79° SE 12:23:32 10° SW
STARLINK-64 3.5 12:14:19 10° WSW 12:17:52 63° NW 12:21:26 10° NE
STARLINK-1202 4.4 12:17:23 10° WNW 12:21:01 30° SW 12:24:39 10° SSE
